Time,TemperatureF,DewpointF,PressureIn,WindDirection,WindDirectionDegrees,WindSpeedMPH,WindSpeedGustMPH,Humidity,HourlyPrecipIn,Conditions,Clouds,dailyrainin,SoftwareType,DateUTC
2013-05-21 00:01:00,72.7,69.9,29.86,NE,45,0.0,0.0,91,0.00,,,0.00,WeatherCatV1.00B22,2013-05-21 04:01:00,
2013-05-21 00:06:00,72.6,69.8,29.86,NE,45,0.0,0.0,91,0.00,,,0.00,WeatherCatV1.00B22,2013-05-21 04:06:00,
2013-05-21 00:11:00,72.5,69.7,29.86,NE,45,0.0,0.0,91,0.00,,,0.00,WeatherCatV1.00B22,2013-05-21 04:11:00,
2013-05-21 00:16:00,72.4,69.6,29.86,NE,45,0.0,0.0,91,0.00,,,0.00,WeatherCatV1.00B22,2013-05-21 04:16:00,
2013-05-21 00:21:00,72.4,69.6,29.86,NE,45,0.0,0.0,91,0.00,,,0.00,WeatherCatV1.00B22,2013-05-21 04:21:00,
2013-05-21 00:26:00,72.3,69.5,29.86,NE,45,0.0,0.0,91,0.00,,,0.00,WeatherCatV1.00B22,2013-05-21 04:26:00,
2013-05-21 00:31:00,72.2,69.4,29.86,NE,45,0.0,0.0,91,0.00,,,0.00,WeatherCatV1.00B22,2013-05-21 04:31:00,
2013-05-21 00:36:00,72.1,69.3,29.85,NE,45,0.0,0.0,91,0.00,,,0.00,WeatherCatV1.00B22,2013-05-21 04:36:00,
2013-05-21 00:41:00,72.0,69.5,29.85,NE,45,0.0,0.0,92,0.00,,,0.00,WeatherCatV1.00B22,2013-05-21 04:41:00,
2013-05-21 00:46:00,71.9,69.4,29.85,NE,45,0.0,0.0,92,0.00,,,0.00,WeatherCatV1.00B22,2013-05-21 04:46:00,
2013-05-21 00:51:00,71.7,69.2,29.85,NE,45,0.0,0.0,92,0.00,,,0.00,WeatherCatV1.00B22,2013-05-21 04:51:00,
2013-05-21 00:56:00,71.6,69.1,29.85,NE,45,0.0,0.0,92,0.00,,,0.00,WeatherCatV1.00B22,2013-05-21 04:56:00,
2013-05-21 01:01:00,71.5,69.4,29.85,NE,45,0.0,0.0,93,0.00,,,0.00,WeatherCatV1.00B22,2013-05-21 05:01:00,
2013-05-21 01:06:00,71.3,69.2,29.85,NE,45,0.0,0.0,93,0.00,,,0.00,WeatherCatV1.00B22,2013-05-21 05:06:00,
2013-05-21 01:11:00,71.2,69.1,29.85,NE,45,0.0,0.0,93,0.00,,,0.00,WeatherCatV1.00B22,2013-05-21 05:11:00,
2013-05-21 01:16:00,71.1,69.0,29.85,NE,45,0.0,0.0,93,0.00,,,0.00,WeatherCatV1.00B22,2013-05-21 05:16:00,
2013-05-21 01:21:00,71.0,68.9,29.85,NE,45,0.0,0.0,93,0.00,,,0.00,WeatherCatV1.00B22,2013-05-21 05:21:00,
2013-05-21 01:26:00,70.9,68.8,29.85,NE,45,0.0,0.0,93,0.00,,,0.00,WeatherCatV1.00B22,2013-05-21 05:26:00,
2013-05-21 01:31:00,70.8,68.7,29.85,NE,45,0.0,0.0,93,0.00,,,0.00,WeatherCatV1.00B22,2013-05-21 05:31:00,
2013-05-21 01:36:00,70.8,69.0,29.85,NE,45,0.0,0.0,94,0.00,,,0.00,WeatherCatV1.00B22,2013-05-21 05:36:00,
2013-05-21 01:41:00,70.7,68.6,29.85,NE,45,0.0,0.0,93,0.00,,,0.00,WeatherCatV1.00B22,2013-05-21 05:41:00,
2013-05-21 01:46:00,70.6,68.5,29.85,NE,45,0.0,0.0,93,0.00,,,0.00,WeatherCatV1.00B22,2013-05-21 05:46:00,
2013-05-21 01:51:00,70.4,68.3,29.85,North,0,0.0,0.0,93,0.00,,,0.00,WeatherCatV1.00B22,2013-05-21 05:51:00,
2013-05-21 01:56:00,70.3,68.2,29.85,North,355,0.0,0.0,93,0.00,,,0.00,WeatherCatV1.00B22,2013-05-21 05:56:00,
2013-05-21 02:01:00,70.2,68.4,29.85,North,355,0.0,0.0,94,0.00,,,0.00,WeatherCatV1.00B22,2013-05-21 06:01:00,
2013-05-21 02:06:00,70.2,68.4,29.85,North,355,0.0,0.0,94,0.00,,,0.00,WeatherCatV1.00B22,2013-05-21 06:06:00,
2013-05-21 02:11:00,70.1,68.3,29.85,North,355,0.0,0.0,94,0.00,,,0.00,WeatherCatV1.00B22,2013-05-21 06:11:00,
2013-05-21 02:16:00,70.0,68.2,29.85,North,355,0.0,0.0,94,0.00,,,0.00,WeatherCatV1.00B22,2013-05-21 06:16:00,
2013-05-21 02:21:00,69.9,68.1,29.85,North,355,0.0,0.0,94,0.00,,,0.00,WeatherCatV1.00B22,2013-05-21 06:21:00,
2013-05-21 02:26:00,69.8,68.0,29.85,North,355,0.0,0.0,94,0.00,,,0.00,WeatherCatV1.00B22,2013-05-21 06:26:00,
2013-05-21 02:31:00,69.8,68.0,29.85,North,355,0.0,0.0,94,0.00,,,0.00,WeatherCatV1.00B22,2013-05-21 06:31:00,
2013-05-21 02:36:00,69.7,67.9,29.85,North,355,0.0,0.0,94,0.00,,,0.00,WeatherCatV1.00B22,2013-05-21 06:36:00,
2013-05-21 02:41:00,69.7,67.9,29.85,North,355,0.0,0.0,94,0.00,,,0.00,WeatherCatV1.00B22,2013-05-21 06:41:00,
2013-05-21 02:46:00,69.6,68.1,29.85,North,355,0.0,0.0,95,0.00,,,0.00,WeatherCatV1.00B22,2013-05-21 06:46:00,
2013-05-21 02:51:00,69.5,68.0,29.85,North,355,0.0,0.0,95,0.00,,,0.00,WeatherCatV1.00B22,2013-05-21 06:51:00,
2013-05-21 02:56:00,69.5,68.0,29.85,North,355,0.0,0.0,95,0.00,,,0.00,WeatherCatV1.00B22,2013-05-21 06:56:00,
2013-05-21 03:01:00,69.4,67.9,29.85,North,355,0.0,0.0,95,0.00,,,0.00,WeatherCatV1.00B22,2013-05-21 07:01:00,
2013-05-21 03:06:00,69.3,67.5,29.85,North,355,0.0,0.0,94,0.00,,,0.00,WeatherCatV1.00B22,2013-05-21 07:06:00,
2013-05-21 03:11:00,69.2,67.4,29.84,North,355,0.0,0.0,94,0.00,,,0.00,WeatherCatV1.00B22,2013-05-21 07:11:00,
2013-05-21 03:16:00,69.1,67.6,29.84,North,355,0.0,0.0,95,0.00,,,0.00,WeatherCatV1.00B22,2013-05-21 07:16:00,
2013-05-21 03:21:00,69.1,67.6,29.84,North,355,0.0,0.0,95,0.00,,,0.00,WeatherCatV1.00B22,2013-05-21 07:21:00,
2013-05-21 03:26:00,69.0,67.5,29.84,North,355,0.0,0.0,95,0.00,,,0.00,WeatherCatV1.00B22,2013-05-21 07:26:00,
2013-05-21 03:31:00,69.0,67.5,29.84,North,355,0.0,0.0,95,0.00,,,0.00,WeatherCatV1.00B22,2013-05-21 07:31:00,
2013-05-21 03:36:00,68.9,67.4,29.84,North,355,0.0,0.0,95,0.00,,,0.00,WeatherCatV1.00B22,2013-05-21 07:36:00,
2013-05-21 03:41:00,68.9,67.4,29.84,North,355,0.0,0.0,95,0.00,,,0.00,WeatherCatV1.00B22,2013-05-21 07:41:00,
2013-05-21 03:46:00,68.9,67.4,29.84,North,355,0.0,0.0,95,0.00,,,0.00,WeatherCatV1.00B22,2013-05-21 07:46:00,
2013-05-21 03:51:00,68.8,67.3,29.84,North,355,0.0,0.0,95,0.00,,,0.00,WeatherCatV1.00B22,2013-05-21 07:51:00,
2013-05-21 03:56:00,68.7,67.2,29.84,North,355,0.0,0.0,95,0.00,,,0.00,WeatherCatV1.00B22,2013-05-21 07:56:00,
2013-05-21 04:01:00,68.6,67.1,29.84,North,355,0.0,0.0,95,0.00,,,0.00,WeatherCatV1.00B22,2013-05-21 08:01:00,
2013-05-21 04:06:00,68.6,67.1,29.84,North,355,0.0,0.0,95,0.00,,,0.00,WeatherCatV1.00B22,2013-05-21 08:06:00,
2013-05-21 04:11:00,68.6,67.1,29.84,North,355,0.0,0.0,95,0.00,,,0.00,WeatherCatV1.00B22,2013-05-21 08:11:00,
2013-05-21 04:16:00,68.5,67.0,29.84,North,355,0.0,0.0,95,0.00,,,0.00,WeatherCatV1.00B22,2013-05-21 08:16:00,
2013-05-21 04:21:00,68.5,67.3,29.83,North,355,0.0,0.0,96,0.00,,,0.00,WeatherCatV1.00B22,2013-05-21 08:21:00,
2013-05-21 04:26:00,68.5,67.3,29.83,North,355,0.0,0.0,96,0.00,,,0.00,WeatherCatV1.00B22,2013-05-21 08:26:00,
2013-05-21 04:31:00,68.4,67.2,29.83,North,355,0.0,0.0,96,0.00,,,0.00,WeatherCatV1.00B22,2013-05-21 08:31:00,
2013-05-21 04:36:00,68.4,67.2,29.83,North,355,0.0,0.0,96,0.00,,,0.00,WeatherCatV1.00B22,2013-05-21 08:36:00,
2013-05-21 04:41:00,68.3,67.1,29.83,North,355,0.0,0.0,96,0.00,,,0.00,WeatherCatV1.00B22,2013-05-21 08:41:00,
2013-05-21 04:46:00,68.3,67.1,29.84,North,355,0.0,0.0,96,0.00,,,0.00,WeatherCatV1.00B22,2013-05-21 08:46:00,
2013-05-21 04:51:00,68.2,67.0,29.84,North,355,0.0,0.0,96,0.00,,,0.00,WeatherCatV1.00B22,2013-05-21 08:51:00,
2013-05-21 04:56:00,68.1,66.9,29.84,North,355,0.0,0.0,96,0.00,,,0.00,WeatherCatV1.00B22,2013-05-21 08:56:00,
2013-05-21 05:01:00,68.1,66.9,29.84,North,355,0.0,0.0,96,0.00,,,0.00,WeatherCatV1.00B22,2013-05-21 09:01:00,
2013-05-21 05:06:00,68.2,67.0,29.83,North,355,0.0,0.0,96,0.00,,,0.00,WeatherCatV1.00B22,2013-05-21 09:06:00,
2013-05-21 05:11:00,68.3,67.1,29.83,North,355,0.0,0.0,96,0.00,,,0.00,WeatherCatV1.00B22,2013-05-21 09:11:00,
2013-05-21 05:16:00,68.3,67.1,29.83,North,355,0.0,0.0,96,0.00,,,0.00,WeatherCatV1.00B22,2013-05-21 09:16:00,
2013-05-21 05:21:00,68.2,67.0,29.83,North,355,0.0,0.0,96,0.00,,,0.00,WeatherCatV1.00B22,2013-05-21 09:21:00,
2013-05-21 05:26:00,68.2,67.0,29.83,North,355,0.0,0.0,96,0.00,,,0.00,WeatherCatV1.00B22,2013-05-21 09:26:00,
2013-05-21 05:31:00,68.2,67.0,29.84,North,355,0.0,0.0,96,0.00,,,0.00,WeatherCatV1.00B22,2013-05-21 09:31:00,
2013-05-21 05:36:00,68.2,67.0,29.84,North,355,0.0,0.0,96,0.00,,,0.00,WeatherCatV1.00B22,2013-05-21 09:36:00,
2013-05-21 05:40:00,68.1,66.9,29.85,North,355,0.0,0.0,96,0.00,,,0.00,WeatherCatV1.00B22,2013-05-21 09:40:00,
2013-05-21 05:45:00,68.1,66.9,29.85,North,355,0.0,0.0,96,0.00,,,0.00,WeatherCatV1.00B22,2013-05-21 09:45:00,
2013-05-21 05:50:00,68.0,66.8,29.85,North,355,0.0,0.0,96,0.00,,,0.00,WeatherCatV1.00B22,2013-05-21 09:50:00,
2013-05-21 05:55:00,67.9,66.7,29.85,North,355,0.0,0.0,96,0.00,,,0.00,WeatherCatV1.00B22,2013-05-21 09:55:00,
2013-05-21 06:00:00,68.0,66.8,29.85,North,355,0.0,0.0,96,0.00,,,0.00,WeatherCatV1.00B22,2013-05-21 10:00:00,
2013-05-21 06:05:00,68.0,66.8,29.85,North,355,0.0,0.0,96,0.00,,,0.00,WeatherCatV1.00B22,2013-05-21 10:05:00,
2013-05-21 06:10:00,68.0,67.1,29.85,North,355,0.0,0.0,97,0.00,,,0.00,WeatherCatV1.00B22,2013-05-21 10:10:00,
2013-05-21 06:15:00,68.0,66.8,29.85,North,355,0.0,0.0,96,0.00,,,0.00,WeatherCatV1.00B22,2013-05-21 10:15:00,
2013-05-21 06:20:00,67.9,66.7,29.84,North,355,0.0,0.0,96,0.00,,,0.00,WeatherCatV1.00B22,2013-05-21 10:20:00,
2013-05-21 06:25:00,67.8,66.6,29.84,North,355,0.0,0.0,96,0.00,,,0.00,WeatherCatV1.00B22,2013-05-21 10:25:00,
2013-05-21 06:30:00,67.8,66.6,29.84,North,355,0.0,0.0,96,0.00,,,0.00,WeatherCatV1.00B22,2013-05-21 10:30:00,
2013-05-21 06:35:00,67.7,66.5,29.85,North,355,0.0,0.0,96,0.00,,,0.00,WeatherCatV1.00B22,2013-05-21 10:35:00,
2013-05-21 06:40:00,67.7,66.5,29.85,North,355,0.0,0.0,96,0.00,,,0.00,WeatherCatV1.00B22,2013-05-21 10:40:00,
2013-05-21 06:45:00,67.6,66.4,29.85,North,355,0.0,0.0,96,0.00,,,0.00,WeatherCatV1.00B22,2013-05-21 10:45:00,
2013-05-21 06:50:00,67.5,66.3,29.85,North,355,0.0,0.0,96,0.00,,,0.00,WeatherCatV1.00B22,2013-05-21 10:50:00,
2013-05-21 06:55:00,67.5,66.3,29.85,North,355,0.0,0.0,96,0.00,,,0.00,WeatherCatV1.00B22,2013-05-21 10:55:00,
2013-05-21 07:00:00,67.5,66.3,29.85,North,355,0.0,0.0,96,0.00,,,0.00,WeatherCatV1.00B22,2013-05-21 11:00:00,
2013-05-21 07:05:00,67.6,66.7,29.85,North,355,0.0,0.0,97,0.00,,,0.00,WeatherCatV1.00B22,2013-05-21 11:05:00,
2013-05-21 07:10:00,67.7,66.8,29.86,North,355,0.0,0.0,97,0.00,,,0.00,WeatherCatV1.00B22,2013-05-21 11:10:00,
2013-05-21 07:15:00,67.8,66.9,29.86,North,355,0.0,0.0,97,0.00,,,0.00,WeatherCatV1.00B22,2013-05-21 11:15:00,
2013-05-21 07:20:00,67.9,67.0,29.86,North,355,0.0,0.0,97,0.00,,,0.00,WeatherCatV1.00B22,2013-05-21 11:20:00,
2013-05-21 07:22:00,67.9,67.0,29.86,North,355,0.0,0.0,97,0.00,,,0.00,WeatherCatV1.00B22,2013-05-21 11:22:00,
2013-05-21 07:27:00,67.9,67.0,29.86,North,355,0.0,0.0,97,0.00,,,0.00,WeatherCatV1.00B22,2013-05-21 11:27:00,
2013-05-21 07:32:00,68.0,67.1,29.86,North,355,0.0,0.0,97,0.00,,,0.00,WeatherCatV1.00B22,2013-05-21 11:32:00,
2013-05-21 07:37:00,68.0,67.1,29.86,North,355,0.0,0.0,97,0.00,,,0.00,WeatherCatV1.00B22,2013-05-21 11:37:00,
2013-05-21 07:42:00,68.0,67.1,29.87,South,188,0.0,1.0,97,0.00,,,0.00,WeatherCatV1.00B22,2013-05-21 11:42:00,
2013-05-21 07:47:00,68.1,67.2,29.87,South,188,0.0,0.0,97,0.00,,,0.00,WeatherCatV1.00B22,2013-05-21 11:47:00,
2013-05-21 07:52:00,68.1,67.2,29.87,South,188,0.0,0.0,97,0.00,,,0.00,WeatherCatV1.00B22,2013-05-21 11:52:00,
2013-05-21 07:57:00,68.2,67.3,29.87,South,188,0.0,0.0,97,0.00,,,0.00,WeatherCatV1.00B22,2013-05-21 11:57:00,
2013-05-21 08:02:00,68.3,67.4,29.87,South,188,0.0,0.0,97,0.00,,,0.00,WeatherCatV1.00B22,2013-05-21 12:02:00,
2013-05-21 08:07:00,68.5,67.6,29.87,South,188,0.0,0.0,97,0.00,,,0.00,WeatherCatV1.00B22,2013-05-21 12:07:00,
2013-05-21 08:12:00,68.6,67.7,29.87,South,188,0.0,0.0,97,0.00,,,0.00,WeatherCatV1.00B22,2013-05-21 12:12:00,
2013-05-21 08:17:00,68.8,67.9,29.87,South,188,0.0,0.0,97,0.00,,,0.00,WeatherCatV1.00B22,2013-05-21 12:17:00,
2013-05-21 08:22:00,68.9,67.7,29.87,South,188,0.0,0.0,96,0.00,,,0.00,WeatherCatV1.00B22,2013-05-21 12:22:00,
2013-05-21 08:27:00,69.1,68.2,29.88,South,188,0.0,0.0,97,0.00,,,0.00,WeatherCatV1.00B22,2013-05-21 12:27:00,
2013-05-21 08:32:00,69.4,68.2,29.88,South,188,0.0,0.0,96,0.00,,,0.00,WeatherCatV1.00B22,2013-05-21 12:32:00,
2013-05-21 08:37:00,69.6,68.4,29.88,South,188,0.0,0.0,96,0.00,,,0.00,WeatherCatV1.00B22,2013-05-21 12:37:00,
2013-05-21 08:42:00,69.8,68.6,29.88,South,188,0.0,0.0,96,0.00,,,0.00,WeatherCatV1.00B22,2013-05-21 12:42:00,
2013-05-21 08:47:00,69.9,68.7,29.88,South,188,0.0,0.0,96,0.00,,,0.00,WeatherCatV1.00B22,2013-05-21 12:47:00,
2013-05-21 08:52:00,70.2,68.7,29.88,South,188,0.0,0.0,95,0.00,,,0.00,WeatherCatV1.00B22,2013-05-21 12:52:00,
2013-05-21 08:57:00,70.5,69.0,29.88,South,188,0.0,0.0,95,0.00,,,0.00,WeatherCatV1.00B22,2013-05-21 12:57:00,
2013-05-21 09:02:00,70.8,69.3,29.88,South,188,0.0,0.0,95,0.00,,,0.00,WeatherCatV1.00B22,2013-05-21 13:02:00,
2013-05-21 09:07:00,71.1,69.6,29.88,South,188,0.0,0.0,95,0.00,,,0.00,WeatherCatV1.00B22,2013-05-21 13:07:00,
2013-05-21 09:12:00,71.3,69.5,29.88,South,178,0.0,0.0,94,0.00,,,0.00,WeatherCatV1.00B22,2013-05-21 13:12:00,
2013-05-21 09:17:00,71.5,69.7,29.88,South,178,0.0,0.0,94,0.00,,,0.00,WeatherCatV1.00B22,2013-05-21 13:17:00,
2013-05-21 09:22:00,71.7,69.6,29.88,South,178,0.0,0.0,93,0.00,,,0.00,WeatherCatV1.00B22,2013-05-21 13:22:00,
2013-05-21 09:27:00,72.0,69.9,29.88,South,178,0.0,0.0,93,0.00,,,0.00,WeatherCatV1.00B22,2013-05-21 13:27:00,
2013-05-21 09:32:00,72.3,70.2,29.88,South,177,0.0,0.0,93,0.00,,,0.00,WeatherCatV1.00B22,2013-05-21 13:32:00,
2013-05-21 09:37:00,72.6,70.1,29.88,South,177,0.0,0.0,92,0.00,,,0.00,WeatherCatV1.00B22,2013-05-21 13:37:00,
2013-05-21 09:42:00,72.9,70.4,29.88,South,177,0.0,0.0,92,0.00,,,0.00,WeatherCatV1.00B22,2013-05-21 13:42:00,
2013-05-21 09:47:00,73.3,70.5,29.88,South,177,0.0,0.0,91,0.00,,,0.00,WeatherCatV1.00B22,2013-05-21 13:47:00,
2013-05-21 09:52:00,73.7,70.6,29.88,South,184,0.0,0.0,90,0.00,,,0.00,WeatherCatV1.00B22,2013-05-21 13:52:00,
2013-05-21 09:57:00,74.1,71.0,29.88,SSW,201,0.0,0.0,90,0.00,,,0.00,WeatherCatV1.00B22,2013-05-21 13:57:00,
2013-05-21 10:02:00,74.5,70.7,29.88,SSW,201,0.0,0.0,88,0.00,,,0.00,WeatherCatV1.00B22,2013-05-21 14:02:00,
2013-05-21 10:07:00,75.0,70.9,29.88,South,186,0.0,0.0,87,0.00,,,0.00,WeatherCatV1.00B22,2013-05-21 14:07:00,
2013-05-21 10:12:00,75.4,70.6,29.88,SW,233,0.0,1.0,85,0.00,,,0.00,WeatherCatV1.00B22,2013-05-21 14:12:00,
2013-05-21 10:17:00,75.8,70.6,29.88,ESE,119,0.0,0.0,84,0.00,,,0.00,WeatherCatV1.00B22,2013-05-21 14:17:00,
2013-05-21 10:22:00,76.1,70.5,29.87,South,178,0.0,0.0,83,0.00,,,0.00,WeatherCatV1.00B22,2013-05-21 14:22:00,
2013-05-21 10:27:00,76.5,70.6,29.87,South,172,0.0,0.0,82,0.00,,,0.00,WeatherCatV1.00B22,2013-05-21 14:27:00,
2013-05-21 10:32:00,77.1,70.8,29.87,SE,142,0.0,0.0,81,0.00,,,0.00,WeatherCatV1.00B22,2013-05-21 14:32:00,
2013-05-21 10:37:00,77.7,71.4,29.87,SSW,197,0.0,0.0,81,0.00,,,0.00,WeatherCatV1.00B22,2013-05-21 14:37:00,
2013-05-21 10:42:00,78.3,70.9,29.87,NW,309,0.0,0.0,78,0.00,,,0.00,WeatherCatV1.00B22,2013-05-21 14:42:00,
2013-05-21 10:47:00,78.8,71.0,29.87,North,355,0.0,0.0,77,0.00,,,0.00,WeatherCatV1.00B22,2013-05-21 14:47:00,
2013-05-21 10:52:00,79.2,71.0,29.87,South,170,0.0,0.0,76,0.00,,,0.00,WeatherCatV1.00B22,2013-05-21 14:52:00,
2013-05-21 10:57:00,79.6,70.6,29.87,SE,145,0.0,0.0,74,0.00,,,0.00,WeatherCatV1.00B22,2013-05-21 14:57:00,
2013-05-21 11:02:00,79.8,71.5,29.87,SE,129,0.0,0.0,76,0.00,,,0.00,WeatherCatV1.00B22,2013-05-21 15:02:00,
2013-05-21 11:07:00,79.9,70.8,29.87,SSW,200,0.0,0.0,74,0.00,,,0.00,WeatherCatV1.00B22,2013-05-21 15:07:00,
2013-05-21 11:12:00,80.2,71.9,29.86,SSE,168,0.0,1.0,76,0.00,,,0.00,WeatherCatV1.00B22,2013-05-21 15:12:00,
2013-05-21 11:17:00,80.5,72.6,29.86,SW,215,0.0,1.0,77,0.00,,,0.00,WeatherCatV1.00B22,2013-05-21 15:17:00,
2013-05-21 11:22:00,80.7,72.8,29.86,SSW,198,0.0,0.0,77,0.00,,,0.00,WeatherCatV1.00B22,2013-05-21 15:22:00,
2013-05-21 11:27:00,80.7,72.4,29.86,SSW,198,0.0,0.0,76,0.00,,,0.00,WeatherCatV1.00B22,2013-05-21 15:27:00,
2013-05-21 11:32:00,80.7,72.4,29.86,North,355,0.0,1.0,76,0.00,,,0.00,WeatherCatV1.00B22,2013-05-21 15:32:00,
2013-05-21 11:37:00,81.0,71.9,29.86,NNE,30,0.0,2.0,74,0.00,,,0.00,WeatherCatV1.00B22,2013-05-21 15:37:00,
2013-05-21 11:42:00,81.4,70.7,29.86,East,101,0.0,1.0,70,0.00,,,0.00,WeatherCatV1.00B22,2013-05-21 15:42:00,
2013-05-21 11:47:00,81.6,72.1,29.86,SSE,165,0.0,1.0,73,0.00,,,0.00,WeatherCatV1.00B22,2013-05-21 15:47:00,
2013-05-21 11:52:00,81.8,71.0,29.86,North,355,0.0,3.0,70,0.00,,,0.00,WeatherCatV1.00B22,2013-05-21 15:52:00,
2013-05-21 11:57:00,81.7,71.4,29.86,WNW,300,0.0,1.0,71,0.00,,,0.00,WeatherCatV1.00B22,2013-05-21 15:57:00,
2013-05-21 12:02:00,82.0,72.1,29.86,NNW,335,0.0,1.0,72,0.00,,,0.00,WeatherCatV1.00B22,2013-05-21 16:02:00,
2013-05-21 12:07:00,82.1,71.3,29.86,NE,45,0.0,1.0,70,0.00,,,0.00,WeatherCatV1.00B22,2013-05-21 16:07:00,
2013-05-21 12:12:00,81.8,71.0,29.86,West,277,0.0,1.0,70,0.00,,,0.00,WeatherCatV1.00B22,2013-05-21 16:12:00,
2013-05-21 12:17:00,81.7,72.2,29.86,NW,322,1.0,1.0,73,0.00,,,0.00,WeatherCatV1.00B22,2013-05-21 16:17:00,
2013-05-21 12:22:00,81.8,71.5,29.86,SSE,157,0.0,1.0,71,0.00,,,0.00,WeatherCatV1.00B22,2013-05-21 16:22:00,
2013-05-21 12:27:00,82.2,71.4,29.86,South,181,0.0,1.0,70,0.00,,,0.00,WeatherCatV1.00B22,2013-05-21 16:27:00,
2013-05-21 12:32:00,82.4,72.8,29.86,South,181,0.0,0.0,73,0.00,,,0.00,WeatherCatV1.00B22,2013-05-21 16:32:00,
2013-05-21 12:37:00,82.4,71.6,29.85,SSE,162,1.0,1.0,70,0.00,,,0.00,WeatherCatV1.00B22,2013-05-21 16:37:00,
2013-05-21 12:42:00,82.7,72.3,29.86,SSE,159,0.0,2.0,71,0.00,,,0.00,WeatherCatV1.00B22,2013-05-21 16:42:00,
2013-05-21 12:47:00,82.9,72.1,29.85,SE,142,0.0,0.0,70,0.00,,,0.00,WeatherCatV1.00B22,2013-05-21 16:47:00,
2013-05-21 12:52:00,82.9,71.2,29.85,North,355,1.0,1.0,68,0.00,,,0.00,WeatherCatV1.00B22,2013-05-21 16:52:00,
2013-05-21 12:57:00,82.8,71.6,29.85,ESE,105,0.0,0.0,69,0.00,,,0.00,WeatherCatV1.00B22,2013-05-21 16:57:00,
2013-05-21 13:02:00,83.1,71.0,29.85,North,5,0.0,0.0,67,0.00,,,0.00,WeatherCatV1.00B22,2013-05-21 17:02:00,
2013-05-21 13:07:00,83.5,73.1,29.85,East,95,0.0,1.0,71,0.00,,,0.00,WeatherCatV1.00B22,2013-05-21 17:07:00,
2013-05-21 13:12:00,83.7,73.3,29.84,SSW,200,1.0,1.0,71,0.00,,,0.00,WeatherCatV1.00B22,2013-05-21 17:12:00,
2013-05-21 13:17:00,83.5,71.8,29.84,SSW,201,0.0,0.0,68,0.00,,,0.00,WeatherCatV1.00B22,2013-05-21 17:17:00,
2013-05-21 13:22:00,83.4,71.3,29.84,NE,49,1.0,1.0,67,0.00,,,0.00,WeatherCatV1.00B22,2013-05-21 17:22:00,
2013-05-21 13:27:00,83.4,71.3,29.84,NE,34,2.0,2.0,67,0.00,,,0.00,WeatherCatV1.00B22,2013-05-21 17:27:00,
2013-05-21 13:32:00,83.4,71.3,29.84,NNW,331,1.0,1.0,67,0.00,,,0.00,WeatherCatV1.00B22,2013-05-21 17:32:00,
2013-05-21 13:37:00,83.5,70.9,29.83,North,0,0.0,1.0,66,0.00,,,0.00,WeatherCatV1.00B22,2013-05-21 17:37:00,
2013-05-21 13:42:00,83.6,70.6,29.84,SSE,148,0.0,1.0,65,0.00,,,0.00,WeatherCatV1.00B22,2013-05-21 17:42:00,
2013-05-21 13:47:00,84.0,70.0,29.83,South,188,0.0,1.0,63,0.00,,,0.00,WeatherCatV1.00B22,2013-05-21 17:47:00,
2013-05-21 13:52:00,84.4,70.4,29.83,South,188,0.0,0.0,63,0.00,,,0.00,WeatherCatV1.00B22,2013-05-21 17:52:00,
2013-05-21 13:57:00,84.2,72.0,29.83,South,188,0.0,0.0,67,0.00,,,0.00,WeatherCatV1.00B22,2013-05-21 17:57:00,
2013-05-21 14:02:00,84.0,70.0,29.83,NW,319,0.0,1.0,63,0.00,,,0.00,WeatherCatV1.00B22,2013-05-21 18:02:00,
2013-05-21 14:07:00,84.0,70.5,29.83,NW,320,0.0,1.0,64,0.00,,,0.00,WeatherCatV1.00B22,2013-05-21 18:07:00,
2013-05-21 14:12:00,84.0,71.8,29.83,NNE,22,0.0,1.0,67,0.00,,,0.00,WeatherCatV1.00B22,2013-05-21 18:12:00,
2013-05-21 14:17:00,83.9,71.3,29.82,NW,316,0.0,1.0,66,0.00,,,0.00,WeatherCatV1.00B22,2013-05-21 18:17:00,
2013-05-21 14:22:00,83.9,72.2,29.82,NNW,331,0.0,1.0,68,0.00,,,0.00,WeatherCatV1.00B22,2013-05-21 18:22:00,
2013-05-21 14:27:00,84.3,70.3,29.82,NNW,342,0.0,1.0,63,0.00,,,0.00,WeatherCatV1.00B22,2013-05-21 18:27:00,
2013-05-21 14:32:00,84.3,70.8,29.82,NNW,340,0.0,1.0,64,0.00,,,0.00,WeatherCatV1.00B22,2013-05-21 18:32:00,
2013-05-21 14:37:00,84.3,70.8,29.82,SSE,158,1.0,2.0,64,0.00,,,0.00,WeatherCatV1.00B22,2013-05-21 18:37:00,
2013-05-21 14:42:00,84.6,70.1,29.81,South,169,0.0,1.0,62,0.00,,,0.00,WeatherCatV1.00B22,2013-05-21 18:42:00,
2013-05-21 14:47:00,84.7,69.7,29.81,WNW,302,0.0,1.0,61,0.00,,,0.00,WeatherCatV1.00B22,2013-05-21 18:47:00,
2013-05-21 14:52:00,84.6,72.4,29.81,WNW,299,0.0,1.0,67,0.00,,,0.00,WeatherCatV1.00B22,2013-05-21 18:52:00,
2013-05-21 14:57:00,84.6,70.1,29.80,NNW,332,0.0,3.0,62,0.00,,,0.00,WeatherCatV1.00B22,2013-05-21 18:57:00,
2013-05-21 15:02:00,84.6,70.1,29.80,NNW,332,0.0,1.0,62,0.00,,,0.00,WeatherCatV1.00B22,2013-05-21 19:02:00,
2013-05-21 15:07:00,84.6,69.6,29.80,NNW,333,0.0,1.0,61,0.00,,,0.00,WeatherCatV1.00B22,2013-05-21 19:07:00,
2013-05-21 15:12:00,84.6,71.0,29.80,North,9,0.0,1.0,64,0.00,,,0.00,WeatherCatV1.00B22,2013-05-21 19:12:00,
2013-05-21 15:17:00,84.6,70.6,29.80,East,101,1.0,1.0,63,0.00,,,0.00,WeatherCatV1.00B22,2013-05-21 19:17:00,
2013-05-21 15:22:00,84.6,70.6,29.79,NW,323,0.0,2.0,63,0.00,,,0.00,WeatherCatV1.00B22,2013-05-21 19:22:00,
2013-05-21 15:27:00,84.6,71.0,29.79,WSW,243,0.0,1.0,64,0.00,,,0.00,WeatherCatV1.00B22,2013-05-21 19:27:00,
2013-05-21 15:32:00,84.7,70.2,29.79,NW,324,0.0,1.0,62,0.00,,,0.00,WeatherCatV1.00B22,2013-05-21 19:32:00,
2013-05-21 15:37:00,84.6,70.1,29.78,NE,51,0.0,2.0,62,0.00,,,0.00,WeatherCatV1.00B22,2013-05-21 19:37:00,
2013-05-21 15:42:00,84.7,70.2,29.78,NE,54,0.0,1.0,62,0.00,,,0.00,WeatherCatV1.00B22,2013-05-21 19:42:00,
2013-05-21 15:47:00,84.7,69.7,29.78,East,99,0.0,2.0,61,0.00,,,0.00,WeatherCatV1.00B22,2013-05-21 19:47:00,
2013-05-21 15:52:00,84.9,68.4,29.77,SE,145,0.0,2.0,58,0.00,,,0.00,WeatherCatV1.00B22,2013-05-21 19:52:00,
2013-05-21 15:57:00,85.1,69.6,29.77,NE,51,0.0,1.0,60,0.00,,,0.00,WeatherCatV1.00B22,2013-05-21 19:57:00,
2013-05-21 16:02:00,85.1,70.1,29.77,SE,132,0.0,1.0,61,0.00,,,0.00,WeatherCatV1.00B22,2013-05-21 20:02:00,
2013-05-21 16:07:00,85.2,70.7,29.77,South,180,0.0,0.0,62,0.00,,,0.00,WeatherCatV1.00B22,2013-05-21 20:07:00,
2013-05-21 16:12:00,85.3,70.3,29.77,South,182,0.0,1.0,61,0.00,,,0.00,WeatherCatV1.00B22,2013-05-21 20:12:00,
2013-05-21 16:17:00,85.4,67.9,29.77,North,5,1.0,2.0,56,0.00,,,0.00,WeatherCatV1.00B22,2013-05-21 20:17:00,
2013-05-21 16:22:00,85.3,69.3,29.77,NNW,338,0.0,1.0,59,0.00,,,0.00,WeatherCatV1.00B22,2013-05-21 20:22:00,
2013-05-21 16:27:00,85.3,69.3,29.77,ENE,67,0.0,1.0,59,0.00,,,0.00,WeatherCatV1.00B22,2013-05-21 20:27:00,
2013-05-21 16:32:00,85.2,67.7,29.76,NNE,15,0.0,2.0,56,0.00,,,0.00,WeatherCatV1.00B22,2013-05-21 20:32:00,
2013-05-21 16:37:00,85.3,68.8,29.76,NNW,331,0.0,1.0,58,0.00,,,0.00,WeatherCatV1.00B22,2013-05-21 20:37:00,
2013-05-21 16:42:00,85.2,70.2,29.76,NNW,330,0.0,1.0,61,0.00,,,0.00,WeatherCatV1.00B22,2013-05-21 20:42:00,
2013-05-21 16:47:00,85.1,68.6,29.76,NNW,330,0.0,0.0,58,0.00,,,0.00,WeatherCatV1.00B22,2013-05-21 20:47:00,
2013-05-21 16:52:00,85.0,69.5,29.76,NW,308,1.0,1.0,60,0.00,,,0.00,WeatherCatV1.00B22,2013-05-21 20:52:00,
2013-05-21 16:57:00,84.9,69.4,29.76,North,349,0.0,1.0,60,0.00,,,0.00,WeatherCatV1.00B22,2013-05-21 20:57:00,
2013-05-21 17:02:00,84.8,68.8,29.76,NNW,348,0.0,1.0,59,0.00,,,0.00,WeatherCatV1.00B22,2013-05-21 21:02:00,
2013-05-21 17:07:00,84.7,68.3,29.76,NE,47,0.0,2.0,58,0.00,,,0.00,WeatherCatV1.00B22,2013-05-21 21:07:00,
2013-05-21 17:12:00,84.6,68.2,29.76,NNW,348,0.0,2.0,58,0.00,,,0.00,WeatherCatV1.00B22,2013-05-21 21:12:00,
2013-05-21 17:17:00,84.5,68.6,29.75,SW,215,0.0,1.0,59,0.00,,,0.00,WeatherCatV1.00B22,2013-05-21 21:17:00,
2013-05-21 17:22:00,84.2,67.8,29.75,SW,215,0.0,0.0,58,0.00,,,0.00,WeatherCatV1.00B22,2013-05-21 21:22:00,
2013-05-21 17:27:00,84.0,69.5,29.75,SW,214,0.0,1.0,62,0.00,,,0.00,WeatherCatV1.00B22,2013-05-21 21:27:00,
2013-05-21 17:32:00,83.9,69.0,29.75,SE,126,0.0,1.0,61,0.00,,,0.00,WeatherCatV1.00B22,2013-05-21 21:32:00,
2013-05-21 17:37:00,83.7,68.8,29.75,SE,134,0.0,0.0,61,0.00,,,0.00,WeatherCatV1.00B22,2013-05-21 21:37:00,
2013-05-21 17:42:00,83.7,67.8,29.75,North,10,0.0,2.0,59,0.00,,,0.00,WeatherCatV1.00B22,2013-05-21 21:42:00,
2013-05-21 17:47:00,83.8,68.9,29.75,NNE,12,0.0,0.0,61,0.00,,,0.00,WeatherCatV1.00B22,2013-05-21 21:47:00,
2013-05-21 17:52:00,83.8,68.9,29.74,NNE,12,0.0,1.0,61,0.00,,,0.00,WeatherCatV1.00B22,2013-05-21 21:52:00,
2013-05-21 17:57:00,83.7,68.8,29.74,NNE,12,0.0,0.0,61,0.00,,,0.00,WeatherCatV1.00B22,2013-05-21 21:57:00,
2013-05-21 18:02:00,83.6,69.2,29.74,NNE,12,0.0,0.0,62,0.00,,,0.00,WeatherCatV1.00B22,2013-05-21 22:02:00,
2013-05-21 18:08:00,83.6,69.6,29.74,NNE,12,0.0,0.0,63,0.00,,,0.00,WeatherCatV1.00B22,2013-05-21 22:08:00,
2013-05-21 18:13:00,83.5,69.5,29.74,North,0,0.0,0.0,63,0.00,,,0.00,WeatherCatV1.00B22,2013-05-21 22:13:00,
2013-05-21 18:18:00,83.4,69.5,29.74,North,0,0.0,0.0,63,0.00,,,0.00,WeatherCatV1.00B22,2013-05-21 22:18:00,
2013-05-21 18:23:00,83.4,69.9,29.74,North,0,0.0,1.0,64,0.00,,,0.00,WeatherCatV1.00B22,2013-05-21 22:23:00,
2013-05-21 18:28:00,83.3,69.4,29.74,NNE,15,1.0,1.0,63,0.00,,,0.00,WeatherCatV1.00B22,2013-05-21 22:28:00,
2013-05-21 18:33:00,83.3,69.8,29.74,NNE,15,0.0,0.0,64,0.00,,,0.00,WeatherCatV1.00B22,2013-05-21 22:33:00,
2013-05-21 18:38:00,83.2,68.8,29.74,NNE,15,0.0,0.0,62,0.00,,,0.00,WeatherCatV1.00B22,2013-05-21 22:38:00,
2013-05-21 18:43:00,83.1,70.1,29.74,NNE,15,0.0,0.0,65,0.00,,,0.00,WeatherCatV1.00B22,2013-05-21 22:43:00,
2013-05-21 18:48:00,83.0,70.0,29.74,NNE,14,0.0,0.0,65,0.00,,,0.00,WeatherCatV1.00B22,2013-05-21 22:48:00,
2013-05-21 18:53:00,83.0,69.5,29.74,NNE,14,0.0,0.0,64,0.00,,,0.00,WeatherCatV1.00B22,2013-05-21 22:53:00,
2013-05-21 18:58:00,82.9,69.9,29.74,NNE,14,0.0,0.0,65,0.00,,,0.00,WeatherCatV1.00B22,2013-05-21 22:58:00,
2013-05-21 19:03:00,82.8,70.3,29.74,NNE,14,0.0,0.0,66,0.00,,,0.00,WeatherCatV1.00B22,2013-05-21 23:03:00,
2013-05-21 19:08:00,82.7,70.6,29.74,NNE,14,0.0,0.0,67,0.00,,,0.00,WeatherCatV1.00B22,2013-05-21 23:08:00,
2013-05-21 19:13:00,82.5,70.4,29.74,NNE,14,1.0,1.0,67,0.00,,,0.00,WeatherCatV1.00B22,2013-05-21 23:13:00,
2013-05-21 19:18:00,82.3,70.7,29.74,NNE,14,0.0,0.0,68,0.00,,,0.00,WeatherCatV1.00B22,2013-05-21 23:18:00,
2013-05-21 19:23:00,82.1,70.5,29.74,North,5,0.0,1.0,68,0.00,,,0.00,WeatherCatV1.00B22,2013-05-21 23:23:00,
2013-05-21 19:28:00,81.9,70.7,29.74,North,5,0.0,0.0,69,0.00,,,0.00,WeatherCatV1.00B22,2013-05-21 23:28:00,
2013-05-21 19:33:00,81.7,70.5,29.74,North,5,0.0,0.0,69,0.00,,,0.00,WeatherCatV1.00B22,2013-05-21 23:33:00,
2013-05-21 19:38:00,81.5,70.3,29.74,North,5,0.0,0.0,69,0.00,,,0.00,WeatherCatV1.00B22,2013-05-21 23:38:00,
2013-05-21 19:43:00,81.3,70.6,29.74,North,5,0.0,0.0,70,0.00,,,0.00,WeatherCatV1.00B22,2013-05-21 23:43:00,
2013-05-21 19:48:00,81.2,70.5,29.74,North,5,0.0,0.0,70,0.00,,,0.00,WeatherCatV1.00B22,2013-05-21 23:48:00,
2013-05-21 19:53:00,81.1,70.4,29.74,North,5,0.0,0.0,70,0.00,,,0.00,WeatherCatV1.00B22,2013-05-21 23:53:00,
2013-05-21 19:58:00,81.1,70.8,29.74,North,5,0.0,0.0,71,0.00,,,0.00,WeatherCatV1.00B22,2013-05-21 23:58:00,
2013-05-21 20:03:00,81.0,70.7,29.74,North,5,0.0,0.0,71,0.00,,,0.00,WeatherCatV1.00B22,2013-05-22 00:03:00,
2013-05-21 20:08:00,81.0,70.7,29.74,North,5,0.0,0.0,71,0.00,,,0.00,WeatherCatV1.00B22,2013-05-22 00:08:00,
2013-05-21 20:13:00,80.9,71.4,29.74,North,5,0.0,0.0,73,0.00,,,0.00,WeatherCatV1.00B22,2013-05-22 00:13:00,
2013-05-21 20:18:00,80.7,71.6,29.74,NNE,15,1.0,1.0,74,0.00,,,0.00,WeatherCatV1.00B22,2013-05-22 00:18:00,
2013-05-21 20:23:00,80.2,71.5,29.75,NNE,15,0.0,1.0,75,0.00,,,0.00,WeatherCatV1.00B22,2013-05-22 00:23:00,
2013-05-21 20:28:00,79.6,72.1,29.75,NNE,15,1.0,2.0,78,0.00,,,0.00,WeatherCatV1.00B22,2013-05-22 00:28:00,
2013-05-21 20:33:00,79.0,72.7,29.75,NNE,26,0.0,2.0,81,0.00,,,0.00,WeatherCatV1.00B22,2013-05-22 00:33:00,
2013-05-21 20:38:00,78.4,72.4,29.75,NNE,26,0.0,0.0,82,0.00,,,0.00,WeatherCatV1.00B22,2013-05-22 00:38:00,
2013-05-21 20:43:00,78.0,72.0,29.76,NNE,26,0.0,0.0,82,0.00,,,0.00,WeatherCatV1.00B22,2013-05-22 00:43:00,
2013-05-21 20:48:00,77.7,71.8,29.76,NNE,26,0.0,0.0,82,0.00,,,0.00,WeatherCatV1.00B22,2013-05-22 00:48:00,
2013-05-21 20:53:00,77.4,72.5,29.76,SE,132,1.0,1.0,85,0.00,,,0.00,WeatherCatV1.00B22,2013-05-22 00:53:00,
2013-05-21 20:58:00,77.1,72.6,29.76,SE,132,0.0,0.0,86,0.00,,,0.00,WeatherCatV1.00B22,2013-05-22 00:58:00,
2013-05-21 21:03:00,76.8,70.5,29.75,SE,132,0.0,1.0,81,0.00,,,0.00,WeatherCatV1.00B22,2013-05-22 01:03:00,
2013-05-21 21:08:00,76.9,70.2,29.76,SE,131,0.0,1.0,80,0.00,,,0.00,WeatherCatV1.00B22,2013-05-22 01:08:00,
2013-05-21 21:13:00,77.2,70.2,29.76,East,80,0.0,1.0,79,0.00,,,0.00,WeatherCatV1.00B22,2013-05-22 01:13:00,
2013-05-21 21:18:00,77.4,70.4,29.76,ESE,123,1.0,2.0,79,0.00,,,0.00,WeatherCatV1.00B22,2013-05-22 01:18:00,
2013-05-21 21:23:00,77.4,70.0,29.76,SE,126,1.0,2.0,78,0.00,,,0.00,WeatherCatV1.00B22,2013-05-22 01:23:00,
2013-05-21 21:28:00,77.2,69.4,29.76,ESE,114,1.0,2.0,77,0.00,,,0.00,WeatherCatV1.00B22,2013-05-22 01:28:00,
2013-05-21 21:33:00,76.9,69.5,29.77,SE,136,2.0,3.0,78,0.00,,,0.00,WeatherCatV1.00B22,2013-05-22 01:33:00,
2013-05-21 21:38:00,76.1,69.1,29.77,ESE,123,2.0,3.0,79,0.00,,,0.00,WeatherCatV1.00B22,2013-05-22 01:38:00,
2013-05-21 21:43:00,75.2,69.0,29.78,ESE,104,2.0,2.0,81,0.00,,,0.00,WeatherCatV1.00B22,2013-05-22 01:43:00,
2013-05-21 21:48:00,74.7,68.8,29.79,ESE,104,1.0,1.0,82,0.00,,,0.00,WeatherCatV1.00B22,2013-05-22 01:48:00,
2013-05-21 21:53:00,74.2,68.7,29.79,East,84,2.0,3.0,83,0.00,,,0.00,WeatherCatV1.00B22,2013-05-22 01:53:00,
2013-05-21 21:58:00,73.8,68.3,29.79,ESE,103,2.0,3.0,83,0.00,,,0.00,WeatherCatV1.00B22,2013-05-22 01:58:00,
2013-05-21 22:03:00,73.3,67.8,29.80,NE,51,2.0,3.0,83,0.00,,,0.00,WeatherCatV1.00B22,2013-05-22 02:03:00,
2013-05-21 22:08:00,73.0,67.5,29.80,NE,44,2.0,4.0,83,0.00,,,0.00,WeatherCatV1.00B22,2013-05-22 02:08:00,
2013-05-21 22:13:00,72.8,68.0,29.80,NNE,28,1.0,3.0,85,0.00,,,0.00,WeatherCatV1.00B22,2013-05-22 02:13:00,
2013-05-21 22:18:00,72.6,67.5,29.81,North,355,3.0,4.0,84,0.00,,,0.00,WeatherCatV1.00B22,2013-05-22 02:18:00,
2013-05-21 22:23:00,72.4,67.6,29.81,NNE,20,3.0,3.0,85,0.00,,,0.00,WeatherCatV1.00B22,2013-05-22 02:23:00,
2013-05-21 22:28:00,72.5,67.7,29.82,NNE,25,5.0,5.0,85,0.00,,,0.00,WeatherCatV1.00B22,2013-05-22 02:28:00,
2013-05-21 22:33:00,72.4,68.0,29.83,NNE,23,3.0,4.0,86,0.00,,,0.00,WeatherCatV1.00B22,2013-05-22 02:33:00,
2013-05-21 22:38:00,72.0,67.6,29.82,NNE,27,3.0,6.0,86,0.00,,,0.00,WeatherCatV1.00B22,2013-05-22 02:38:00,
2013-05-21 22:43:00,71.8,67.4,29.83,NNE,30,5.0,6.0,86,0.00,,,0.00,WeatherCatV1.00B22,2013-05-22 02:43:00,
2013-05-21 22:48:00,71.5,67.1,29.83,NE,34,5.0,6.0,86,0.00,,,0.00,WeatherCatV1.00B22,2013-05-22 02:48:00,
2013-05-21 22:53:00,71.2,66.8,29.83,NE,46,6.0,7.0,86,0.00,,,0.00,WeatherCatV1.00B22,2013-05-22 02:53:00,
2013-05-21 22:58:00,71.1,67.0,29.83,ENE,77,2.0,3.0,87,0.00,,,0.00,WeatherCatV1.00B22,2013-05-22 02:58:00,
2013-05-21 23:03:00,71.0,66.6,29.83,NE,34,3.0,4.0,86,0.00,,,0.00,WeatherCatV1.00B22,2013-05-22 03:03:00,
2013-05-21 23:08:00,70.8,66.4,29.83,NE,40,2.0,4.0,86,0.00,,,0.00,WeatherCatV1.00B22,2013-05-22 03:08:00,
2013-05-21 23:13:00,70.7,66.3,29.82,NE,52,3.0,4.0,86,0.00,,,0.00,WeatherCatV1.00B22,2013-05-22 03:13:00,
2013-05-21 23:18:00,70.7,66.0,29.82,NE,38,5.0,5.0,85,0.00,,,0.00,WeatherCatV1.00B22,2013-05-22 03:18:00,
2013-05-21 23:23:00,70.8,66.4,29.81,NE,51,1.0,3.0,86,0.00,,,0.00,WeatherCatV1.00B22,2013-05-22 03:23:00,
2013-05-21 23:28:00,70.8,66.7,29.81,NE,51,2.0,2.0,87,0.00,,,0.00,WeatherCatV1.00B22,2013-05-22 03:28:00,
2013-05-21 23:33:00,70.8,66.4,29.81,NE,51,1.0,1.0,86,0.00,,,0.00,WeatherCatV1.00B22,2013-05-22 03:33:00,
2013-05-21 23:38:00,70.8,66.4,29.81,NE,51,1.0,2.0,86,0.00,,,0.00,WeatherCatV1.00B22,2013-05-22 03:38:00,
2013-05-21 23:43:00,70.7,66.3,29.82,NE,51,1.0,2.0,86,0.00,,,0.00,WeatherCatV1.00B22,2013-05-22 03:43:00,
2013-05-21 23:48:00,70.7,66.3,29.83,NE,51,0.0,0.0,86,0.00,,,0.00,WeatherCatV1.00B22,2013-05-22 03:48:00,
2013-05-21 23:53:00,70.6,66.2,29.82,NE,51,0.0,0.0,86,0.00,,,0.00,WeatherCatV1.00B22,2013-05-22 03:53:00,
2013-05-21 23:58:00,70.6,66.2,29.83,NE,51,0.0,0.0,86,0.00,,,0.00,WeatherCatV1.00B22,2013-05-22 03:58:00,